Temperature
22 22 21 21 26 29 28 28 28 28 28 27 26 26 27 27 26 24 20 20 20 19 19 20 19 19 19 19 19 19 19 19 19 19 19 19 19 19 19 19 19 19 19 19 19 19 19 19 19
22 22 22 25 29 28 27 28 28 28 27 26 26 26 26 25 22 20 19 19 19 19 19 19 20 19 19 19 19 19 19 19 19 19 19 19 19 19 19 19 19 19 19 19 19 19 19 19 19
22 22 24 29 29 28 27 28 28 27 26 26 26 25 25 23 21 20 19 19 19 19 19 19 20 20 19 19 19 19 19 19 19 19 19 19 19 19 19 19 18 18 18 18 18 19 18 19 19
22 23 27 29 28 28 28 29 28 28 27 26 26 25 23 21 21 20 19 19 19 19 19 19 20 20 20 20 20 19 19 19 19 19 19 19 19 19 18 18 18 18 18 18 18 18 18 18 18
23 27 29 28 28 28 29 28 28 28 27 26 26 26 23 20 20 20 20 20 19 19 19 19 20 20 20 20 19 19 19 19 19 19 19 19 19 19 19 19 18 18 18 18 18 18 18 18 18
26 28 28 27 27 28 28 28 28 28 27 26 26 25 23 20 20 20 20 20 20 19 19 19 20 20 20 20 19 19 19 19 19 19 19 19 19 19 19 19 19 18 18 18 18 18 18 18 18
27 29 28 27 27 27 27 27 27 27 26 25 25 25 23 21 20 20 20 20 20 19 19 19 19 19 19 19 19 19 19 19 19 19 19 19 19 19 19 19 18 18 18 18 18 18 18 18 18
26 29 27 27 27 26 26 26 25 26 25 23 24 25 23 21 20 19 19 19 19 19 19 19 19 18 18 19 19 19 19 19 19 19 19 19 19 19 19 18 18 18 18 18 18 18 18 18 18
26 28 27 26 26 25 25 25 24 24 23 22 22 21 21 20 19 19 19 19 19 19 19 19 19 19 18 18 18 19 19 19 19 19 19 19 18 18 18 17 18 18 18 18 18 18 18 18 18
28 28 26 26 26 25 23 22 22 23 22 21 21 20 19 19 19 19 19 20 19 19 19 19 19 19 18 18 18 18 18 18 18 18 18 18 17 17 17 17 18 18 18 18 18 18 18 18 17
27 26 26 25 25 24 23 20 19 21 19 18 18 18 18 18 18 18 18 19 19 19 19 19 19 18 18 18 18 18 18 18 18 18 18 18 17 17 17 17 17 17 18 17 17 18 17 17 17
26 25 25 24 23 23 22 20 18 17 16 16 17 17 18 17 17 17 17 17 18 18 18 18 18 18 18 18 18 18 18 18 18 18 18 17 17 17 17 17 17 17 17 17 17 17 17 17 18
26 24 22 21 21 20 20 19 17 16 15 16 16 16 16 16 16 16 16 16 17 17 18 18 18 18 18 18 18 18 18 18 18 18 18 18 17 17 17 17 17 17 17 17 17 17 17 17 18
25 24 23 22 21 20 19 18 17 15 16 16 16 16 15 15 15 16 16 16 16 17 17 18 18 18 18 18 18 18 18 18 18 18 18 17 17 17 17 17 17 17 17 17 17 17 17 17 18
25 25 24 22 22 21 22 19 16 15 16 16 15 15 15 15 15 15 15 15 16 16 16 17 17 17 18 18 18 18 18 18 18 18 18 17 17 17 17 17 17 17 17 17 17 17 17 17 18
26 26 24 22 22 21 22 17 16 15 16 16 15 15 15 15 15 15 15 15 15 15 16 16 17 17 17 18 18 18 18 18 18 18 18 18 17 17 17 17 17 17 17 17 17 17 17 17 18
26 26 24 22 21 21 21 17 16 15 16 16 15 15 15 16 15 15 14 15 15 15 15 16 16 17 17 17 18 18 18 18 18 18 18 18 18 17 17 17 17 17 17 17 17 17 17 18 18
25 25 24 22 20 20 19 16 16 16 16 16 16 16 16 15 15 14 14 14 14 14 15 15 16 16 16 17 17 17 17 17 17 17 18 18 18 18 18 17 17 17 17 17 17 17 17 17 17
25 24 23 21 19 19 18 17 17 16 16 16 16 16 15 15 15 14 14 14 14 14 14 14 15 15 16 16 17 17 17 17 17 17 17 18 18 18 17 17 17 17 17 17 17 17 17 17 17
24 24 22 19 19 19 18 17 17 16 16 16 16 15 15 15 14 14 14 13 13 13 13 14 14 14 15 15 16 16 16 16 17 17 17 17 17 17 17 17 17 17 17 17 17 17 17 17 17
23 23 22 20 18 19 18 18 18 18 17 16 15 15 15 14 14 13 13 13 13 13 13 13 13 14 14 15 15 15 15 16 16 16 16 17 17 17 17 17 17 17 17 17 17 17 17 16 17
22 20 20 20 20 19 19 19 17 17 17 17 15 15 14 14 13 13 12 12 12 12 12 12 13 13 14 14 14 15 15 15 15 15 16 16 16 16 17 17 17 16 16 16 16 16 16 16 16
20 19 20 20 20 20 19 20 18 18 17 16 16 15 14 13 13 12 12 12 12 12 12 12 12 13 13 14 14 14 14 15 15 15 15 16 16 16 16 16 16 16 16 16 16 16 16 16 16
19 19 19 20 21 20 18 19 17 16 16 16 15 14 14 13 12 12 11 11 12 12 12 12 12 13 13 13 13 14 14 14 14 15 15 15 15 16 16 16 16 16 16 16 16 16 16 16 16
20 21 21 21 20 19 17 17 16 16 16 15 15 14 13 13 12 12 11 11 11 11 12 12 12 12 13 13 13 13 13 14 14 14 15 15 15 15 15 15 15 16 16 16 16 16 16 16 16
19 20 21 21 21 19 17 17 16 16 15 15 14 14 13 13 12 11 11 11 11 11 12 12 12 12 12 12 13 13 13 13 14 14 14 14 15 15 15 15 15 15 15 15 15 15 15 15 15
20 19 19 20 19 19 18 17 17 16 16 15 15 14 13 13 12 12 11 11 11 11 11 12 12 12 12 12 12 12 13 13 13 14 14 14 14 14 14 14 15 15 15 15 15 15 15 15 15
19 18 19 20 19 19 17 17 16 16 15 15 15 14 13 13 12 12 11 11 11 11 11 11 12 12 12 12 12 12 12 13 13 13 13 14 14 14 14 14 14 14 14 14 14 14 14 14 15
19 18 18 18 18 19 18 17 16 15 15 15 15 14 13 13 12 12 12 11 11 11 11 11 11 11 12 12 12 12 12 13 13 13 13 13 13 13 14 14 14 14 14 14 14 14 14 14 14
17 17 18 19 18 18 18 17 16 16 15 15 14 14 13 13 13 12 12 12 11 11 11 11 11 11 12 12 12 12 12 12 13 13 13 13 13 13 13 13 13 13 13 13 14 14 14 14 14
Wind_Speed
8 7 4 3 2 7 12 9 7 6 4 5 3 1 2 4 3 4 5 13 15 16 16 17 15 14 13 13 12 12 11 11 10 9 9 9 8 8 7 6 5 5 4 4 4 4 4 4 5
6 5 3 3 5 11 12 8 9 8 6 4 4 3 3 5 6 5 8 12 15 15 16 16 16 15 14 13 12 11 11 10 10 9 8 8 8 7 6 6 5 5 4 4 4 4 4 4 4
6 4 2 2 8 11 11 8 8 7 6 4 4 5 4 5 4 5 9 14 14 14 14 15 15 14 14 13 12 11 11 10 10 9 8 8 7 7 6 6 5 5 4 4 4 4 4 4 4
4 3 2 5 11 9 7 7 5 5 6 7 5 6 6 6 3 7 12 14 14 12 13 15 14 13 13 12 12 11 11 10 10 9 8 8 7 7 6 6 5 5 5 5 4 4 4 4 4
3 2 4 8 9 8 7 7 6 8 8 8 7 8 7 7 7 11 12 12 12 12 11 14 12 12 12 11 11 11 10 10 9 8 8 7 7 7 6 6 5 5 5 4 4 4 4 3 3
2 1 4 7 8 7 8 7 6 9 10 9 7 7 6 6 8 10 10 10 10 10 10 12 12 10 11 11 11 10 10 10 9 9 8 7 7 6 6 5 5 4 4 4 4 4 3 4 3
1 2 5 6 6 6 7 7 10 9 11 11 8 6 6 7 7 7 7 7 7 8 8 9 12 12 11 10 11 11 11 10 10 9 9 8 7 6 6 5 5 4 4 4 3 3 4 4 3
1 2 5 4 4 6 6 7 8 11 10 10 10 7 5 6 6 6 5 5 5 7 7 8 8 9 11 12 13 11 11 11 10 10 10 9 8 7 7 8 6 5 4 4 3 3 3 3 3
2 2 4 3 3 5 7 7 8 8 11 13 13 11 8 8 7 5 4 3 3 4 5 6 7 8 8 8 10 12 12 12 12 12 11 10 10 10 10 8 7 6 5 5 4 3 3 3 4
1 2 5 5 5 8 12 11 8 7 13 13 14 13 10 7 6 4 3 1 1 3 5 5 7 7 8 8 8 10 11 11 13 11 12 12 10 8 7 9 7 7 6 6 5 4 6 8 7
4 5 7 7 8 8 10 14 15 8 11 12 12 11 10 10 9 8 7 6 6 4 4 5 7 8 8 7 8 7 7 8 10 11 11 10 9 8 8 7 10 10 10 10 9 9 9 8 5
7 10 8 7 8 9 9 8 12 18 10 11 11 11 11 12 12 11 11 11 10 8 8 7 7 8 9 9 8 8 8 8 8 10 12 10 8 8 8 7 8 8 8 7 8 7 7 7 8
8 9 14 17 20 18 18 16 13 15 11 11 13 14 15 14 13 11 11 11 11 11 11 10 9 8 8 8 8 8 9 9 10 9 10 11 9 8 8 8 7 8 8 8 8 8 8 7 7
10 14 12 11 11 11 17 14 9 12 11 12 13 14 14 14 13 13 13 12 12 11 11 10 10 8 8 7 8 8 9 10 10 10 11 13 11 10 8 9 8 8 8 8 8 9 7 7 7
12 13 11 8 6 5 5 13 11 11 10 12 13 13 13 13 12 13 12 11 11 11 11 11 10 9 8 8 8 8 9 10 9 10 12 13 13 12 10 9 8 8 10 10 9 9 8 7 7
6 6 4 8 5 3 1 7 10 9 10 12 12 12 11 12 12 12 12 12 11 10 10 10 9 9 9 8 7 7 8 8 8 9 9 12 13 14 11 9 9 9 9 8 8 8 8 8 8
4 4 2 5 9 4 6 7 8 9 10 11 12 12 12 12 13 13 13 13 12 11 11 10 10 10 9 9 7 7 7 8 7 8 8 11 13 13 11 9 9 11 8 8 8 9 9 8 8
2 2 1 4 7 9 10 9 8 9 11 12 12 12 13 14 14 14 14 13 12 11 11 10 10 9 10 8 6 6 6 6 6 7 9 11 11 12 10 8 10 9 8 8 9 10 8 7 7
2 1 2 5 4 6 9 9 8 10 12 13 13 13 14 15 15 14 14 13 13 12 12 11 10 10 8 7 6 5 5 5 6 7 10 11 11 11 9 8 9 8 8 9 10 9 10 9 8
1 1 2 5 4 4 7 8 7 9 12 13 13 14 15 16 17 16 16 15 14 13 12 12 11 10 9 7 7 6 6 6 7 7 9 12 12 12 10 10 9 9 8 9 9 9 8 8 8
2 2 1 3 5 5 4 4 6 7 9 12 13 14 15 16 17 18 17 17 15 14 13 11 11 11 9 9 7 6 6 5 6 7 8 10 12 12 12 11 10 9 9 9 10 10 10 8 8
0 3 1 5 6 2 3 3 5 7 10 14 15 16 16 17 17 16 16 16 16 14 13 12 11 10 9 8 7 7 6 6 6 6 6 7 9 10 11 11 11 10 9 10 10 10 9 9 8
3 2 2 5 5 4 1 4 4 7 12 15 16 16 16 17 17 16 16 16 15 14 13 12 11 10 9 8 7 6 6 5 5 5 6 6 6 7 9 10 10 11 10 11 11 10 10 9 9
0 3 5 5 5 3 2 4 3 8 13 15 16 16 16 17 16 16 16 15 14 13 12 11 11 10 9 8 7 6 6 5 5 5 4 4 3 4 6 7 8 9 8 10 10 10 11 10 10
2 4 3 5 4 1 2 2 3 8 10 12 14 15 15 15 15 16 17 16 15 15 14 12 11 10 9 9 7 7 6 6 5 5 4 3 2 2 4 4 5 6 7 7 8 9 9 11 10
3 4 4 4 2 2 1 1 3 6 8 10 11 13 14 15 15 15 16 15 14 14 14 13 11 10 10 9 8 7 7 5 4 5 4 3 1 1 2 3 4 4 5 6 7 7 9 9 10
2 3 4 2 0 1 2 1 2 5 8 10 12 13 15 15 14 14 15 14 14 14 13 12 12 11 11 10 9 8 8 8 7 7 6 5 4 3 2 1 2 2 2 3 4 5 7 7 8
5 2 3 2 2 1 1 0 4 7 9 11 12 13 13 13 14 14 13 13 13 12 12 13 13 12 12 11 10 8 9 9 8 8 9 8 8 6 5 3 2 2 1 1 2 3 4 5 6
2 1 2 1 3 3 1 2 3 5 7 9 11 11 12 12 13 12 12 12 11 11 12 12 13 13 12 12 11 11 10 10 10 10 10 9 8 8 7 6 5 4 3 1 0 1 3 4 3
3 3 2 2 1 1 1 2 3 3 5 6 9 10 11 11 11 11 11 11 11 12 12 13 13 13 12 12 12 12 12 12 12 11 10 10 9 9 8 8 7 7 6 5 3 2 1 2 3
Wind_Direction
194 189 196 223 195 87 72 63 53 53 51 53 69 74 14 25 5 54 113 151 145 146 145 150 151 148 144 139 137 135 134 134 136 139 143 145 147 150 151 150 151 149 143 140 136 131 123 115 113
174 168 213 240 93 84 72 57 55 48 66 70 68 56 61 57 43 85 133 147 149 147 149 151 149 150 147 145 142 140 139 139 140 141 142 145 148 149 151 149 147 142 138 134 130 126 118 110 107
171 205 261 83 71 69 69 54 58 68 50 35 57 51 43 41 64 112 138 150 151 148 149 143 152 152 150 150 147 147 148 148 149 150 150 150 151 150 151 153 152 145 133 123 118 120 116 108 102
186 220 223 91 80 64 50 49 56 65 56 43 52 70 69 44 61 117 139 152 151 151 150 146 156 154 155 155 154 155 156 156 156 157 157 156 155 155 153 153 151 144 133 124 116 116 114 110 103
233 250 118 95 80 67 50 41 47 45 51 46 49 71 71 54 86 123 142 152 156 157 155 152 159 160 162 162 162 162 162 163 162 163 163 163 164 163 163 158 146 139 132 124 114 113 112 108 101
239 222 114 93 85 68 51 53 53 52 57 50 48 67 69 83 106 128 142 157 162 161 163 158 162 171 172 172 171 172 173 174 173 172 172 171 172 172 166 158 152 145 135 123 111 108 110 109 106
307 100 103 101 96 71 38 46 44 50 52 38 24 63 96 96 104 127 141 155 164 169 174 178 175 180 185 187 186 185 184 186 186 184 182 181 181 179 173 168 163 155 147 140 126 118 117 113 104
330 128 118 101 98 69 35 62 46 40 54 37 24 40 76 106 117 123 127 147 172 184 189 195 199 197 195 194 194 199 198 196 195 195 193 190 190 191 188 193 176 179 174 168 154 142 130 118 100
267 149 107 84 85 71 45 66 51 55 63 50 44 39 53 93 111 114 117 140 185 212 218 216 216 216 223 221 196 201 208 206 203 202 199 202 208 201 196 197 167 194 196 190 183 175 158 162 148
16 97 77 64 77 92 65 54 36 57 48 33 31 40 60 77 81 79 71 82 213 238 239 243 244 237 233 233 226 222 217 207 213 213 202 211 216 214 219 145 186 208 208 203 200 194 198 221 197
61 74 89 77 89 97 91 63 40 58 39 14 12 27 45 51 45 34 22 9 353 330 301 279 266 255 251 242 242 236 233 224 224 223 214 217 218 212 217 200 193 204 208 211 186 207 216 218 212
90 64 72 70 78 79 81 85 59 49 36 21 33 39 46 43 36 27 18 11 3 355 344 322 294 273 259 252 248 245 239 233 231 228 225 218 221 224 216 217 214 208 208 214 218 220 213 220 214
103 94 83 85 83 85 86 83 75 46 36 38 44 45 42 39 32 27 21 16 9 2 350 339 329 304 281 268 259 253 249 245 238 233 235 226 225 228 222 220 216 223 219 208 218 223 212 219 219
107 108 100 90 91 85 82 72 59 30 30 41 43 42 39 35 28 22 17 12 5 357 347 342 332 322 304 276 259 256 256 250 251 243 240 238 231 232 230 229 218 222 222 220 218 217 212 218 217
129 119 98 64 90 119 98 59 39 23 30 39 36 34 31 28 24 18 9 2 358 350 344 342 332 327 317 298 277 266 260 259 253 248 248 247 241 238 232 235 228 221 218 218 218 215 217 219 216
172 177 131 55 34 30 175 68 33 22 32 36 30 25 21 19 15 11 2 355 350 345 341 339 339 334 324 310 290 273 265 260 255 254 251 253 251 245 240 237 236 230 223 219 212 219 213 214 218
208 231 145 85 33 50 85 85 43 28 32 32 24 16 12 10 8 3 356 350 345 340 337 335 335 332 326 313 297 280 267 258 251 251 247 249 249 247 240 239 236 228 219 220 219 216 219 220 219
280 272 101 82 57 80 92 92 59 39 33 28 18 11 6 3 359 355 351 347 341 338 334 334 331 328 323 314 305 289 267 256 245 241 243 245 247 246 240 236 236 231 220 219 222 218 219 229 225
6 320 89 92 102 83 96 91 64 41 31 21 14 7 2 357 352 352 348 344 341 338 335 332 328 328 326 318 311 301 284 267 252 242 240 239 240 239 236 235 233 226 220 220 220 219 218 220 222
12 253 126 112 112 115 112 94 71 43 30 19 10 4 360 354 351 351 347 344 341 337 333 328 327 326 324 314 301 287 289 277 259 248 241 236 233 230 229 227 226 223 220 221 218 213 219 215 214
41 341 196 159 135 142 164 134 66 43 28 22 14 5 359 354 348 347 345 342 340 337 333 329 327 324 323 318 305 296 284 273 261 250 243 236 234 230 226 227 226 225 220 219 217 208 212 213 214
9 27 261 190 201 171 245 236 68 17 16 14 8 2 357 352 348 345 343 342 340 338 334 329 327 326 327 323 309 303 293 285 278 270 255 242 236 233 227 224 222 222 220 220 217 209 210 213 213
18 350 231 205 213 193 326 280 67 15 5 2 360 358 356 353 349 346 344 341 339 339 337 332 330 331 333 330 318 305 299 295 290 282 264 253 240 235 229 222 220 221 220 220 213 205 207 211 214
346 152 143 178 211 220 3 309 35 15 355 349 351 354 354 354 352 351 349 346 345 345 343 339 337 339 342 340 336 331 322 317 313 301 280 261 246 234 227 223 219 219 218 217 212 208 211 214 217
276 252 229 210 215 111 34 326 41 12 355 349 348 350 354 355 355 355 353 352 352 351 351 350 348 346 350 352 355 355 352 343 338 328 312 296 260 230 213 207 205 208 210 212 213 212 213 214 215
13 317 314 308 319 120 165 14 51 13 357 356 357 358 359 358 357 356 354 354 354 354 358 358 356 355 358 1 3 9 12 4 1 356 353 351 327 260 189 186 186 194 207 215 218 217 216 215 214
336 28 349 320 357 214 126 95 115 12 6 6 5 6 5 1 1 358 358 360 359 0 3 3 4 7 6 7 11 16 16 19 23 24 26 27 31 35 64 128 154 164 186 210 216 218 219 216 215
29 2 269 284 286 269 156 352 357 359 1 1 3 3 1 359 1 1 1 1 3 4 9 14 17 16 17 18 19 21 23 30 35 35 34 34 33 35 48 61 74 97 122 176 198 205 213 214 216
23 46 34 39 330 312 314 78 30 354 351 350 355 360 0 359 0 3 5 6 10 13 16 19 20 20 19 20 22 25 26 29 35 36 34 34 37 41 45 48 54 57 60 75 127 215 204 204 202
31 21 318 313 61 347 340 90 78 350 342 344 348 356 1 2 5 8 11 12 16 18 20 22 22 22 22 23 26 29 30 35 36 34 33 35 38 41 47 51 54 53 50 48 47 42 168 193 194
Height
1527 1527 1527 1529 1526 1524 1530 1528 1524 1525 1525 1528 1528 1528 1527 1528 1531 1539 1541 1542 1544 1546 1548 1550 1552 1554 1555 1557 1558 1559 1560 1561 1562 1562 1563 1564 1565 1565 1566 1566 1567 1567 1568 1568 1568 1568 1568 1569 1569
1528 1527 1529 1529 1523 1533 1536 1527 1526 1527 1529 1530 1531 1531 1531 1534 1538 1540 1540 1543 1546 1548 1550 1552 1553 1555 1556 1558 1559 1560 1561 1562 1563 1563 1564 1565 1565 1566 1566 1567 1567 1568 1568 1568 1569 1569 1569 1569 1570
1528 1528 1531 1525 1526 1533 1535 1529 1528 1530 1532 1531 1532 1534 1535 1538 1541 1541 1542 1544 1548 1550 1552 1553 1554 1556 1557 1559 1560 1561 1562 1563 1563 1564 1565 1565 1566 1566 1567 1567 1568 1568 1568 1569 1569 1569 1570 1570 1570
1530 1532 1530 1526 1533 1532 1531 1529 1530 1531 1533 1534 1533 1535 1539 1543 1543 1544 1545 1548 1550 1552 1554 1554 1556 1557 1558 1560 1561 1562 1562 1563 1564 1564 1565 1566 1566 1567 1567 1568 1568 1568 1569 1569 1569 1569 1570 1570 1570
1531 1531 1527 1531 1533 1531 1531 1532 1532 1531 1534 1536 1535 1537 1542 1545 1545 1546 1548 1550 1553 1555 1556 1556 1557 1558 1559 1560 1561 1562 1563 1564 1564 1565 1565 1566 1566 1567 1567 1568 1568 1568 1569 1569 1569 1569 1570 1570 1571
1533 1529 1531 1538 1536 1533 1533 1534 1534 1534 1537 1538 1539 1540 1546 1548 1549 1550 1551 1553 1555 1556 1557 1558 1557 1558 1560 1561 1562 1562 1563 1564 1564 1565 1565 1566 1566 1567 1567 1568 1568 1568 1568 1569 1569 1569 1569 1570 1571
1533 1529 1534 1536 1538 1537 1538 1537 1537 1538 1540 1542 1543 1542 1548 1551 1551 1552 1553 1554 1556 1557 1558 1559 1559 1559 1559 1560 1561 1562 1563 1563 1564 1564 1565 1566 1566 1566 1567 1567 1568 1568 1568 1568 1569 1569 1569 1570 1571
1532 1531 1535 1536 1539 1541 1541 1541 1543 1543 1545 1548 1546 1546 1549 1553 1553 1554 1555 1556 1557 1558 1559 1559 1560 1561 1561 1560 1560 1561 1562 1562 1563 1564 1564 1565 1565 1566 1566 1566 1567 1567 1567 1568 1568 1568 1569 1570 1571
1533 1532 1539 1540 1541 1543 1544 1544 1547 1549 1549 1550 1551 1552 1553 1554 1554 1555 1556 1556 1557 1558 1559 1559 1560 1560 1561 1561 1560 1559 1560 1561 1562 1562 1563 1563 1565 1566 1566 1566 1565 1566 1566 1567 1567 1568 1568 1569 1571
1532 1534 1541 1541 1541 1545 1548 1549 1550 1551 1553 1554 1555 1555 1555 1555 1556 1556 1557 1557 1557 1558 1558 1559 1559 1559 1559 1559 1559 1559 1559 1559 1560 1561 1562 1562 1564 1565 1566 1564 1564 1565 1565 1566 1566 1567 1568 1570 1572
1535 1538 1541 1543 1545 1546 1549 1554 1556 1555 1559 1562 1560 1559 1558 1557 1557 1557 1557 1557 1557 1557 1557 1557 1557 1557 1557 1557 1557 1557 1557 1557 1558 1559 1560 1561 1562 1563 1563 1564 1563 1564 1564 1566 1566 1567 1569 1570 1572
1539 1544 1544 1547 1548 1549 1551 1556 1561 1563 1568 1566 1563 1561 1560 1559 1558 1557 1556 1556 1555 1555 1555 1555 1555 1555 1555 1555 1555 1555 1555 1555 1556 1557 1558 1559 1560 1561 1562 1562 1563 1564 1564 1565 1566 1567 1568 1569 1571
1540 1547 1550 1553 1553 1555 1557 1561 1565 1570 1570 1568 1566 1563 1561 1560 1559 1559 1557 1555 1554 1553 1552 1552 1552 1552 1552 1552 1552 1552 1552 1553 1554 1554 1555 1556 1557 1558 1560 1560 1561 1562 1563 1563 1564 1565 1567 1568 1569
1544 1548 1552 1554 1556 1559 1560 1565 1568 1573 1572 1570 1567 1565 1564 1562 1561 1559 1557 1555 1553 1551 1550 1549 1548 1548 1548 1548 1548 1548 1549 1549 1550 1551 1552 1553 1554 1555 1557 1558 1558 1559 1560 1561 1562 1564 1565 1566 1568
1545 1547 1552 1556 1557 1559 1559 1568 1575 1576 1574 1571 1569 1568 1566 1564 1562 1560 1558 1556 1553 1551 1549 1547 1545 1545 1544 1544 1544 1544 1544 1545 1546 1547 1548 1549 1551 1552 1553 1555 1556 1557 1558 1559 1560 1562 1563 1564 1566
1542 1544 1551 1560 1559 1560 1560 1575 1579 1577 1575 1573 1571 1569 1567 1565 1563 1561 1558 1556 1553 1550 1547 1545 1543 1542 1541 1540 1540 1540 1540 1540 1541 1543 1544 1545 1547 1548 1549 1551 1552 1554 1555 1557 1558 1559 1561 1562 1564
1542 1544 1550 1560 1562 1561 1563 1577 1580 1578 1576 1573 1572 1570 1568 1566 1563 1561 1558 1555 1552 1549 1546 1543 1541 1539 1537 1536 1535 1535 1535 1535 1536 1538 1539 1540 1542 1543 1545 1546 1548 1550 1552 1553 1555 1556 1558 1560 1562
1547 1547 1553 1560 1566 1564 1569 1578 1580 1579 1577 1575 1573 1570 1568 1565 1563 1560 1557 1553 1550 1547 1544 1541 1539 1536 1535 1533 1531 1531 1531 1531 1531 1532 1534 1535 1536 1538 1540 1541 1544 1546 1547 1549 1551 1553 1555 1557 1559
1548 1550 1555 1564 1569 1569 1573 1577 1579 1579 1577 1575 1573 1570 1568 1565 1563 1559 1555 1552 1548 1545 1542 1539 1536 1534 1532 1530 1528 1527 1526 1526 1526 1527 1528 1530 1531 1532 1534 1536 1538 1541 1543 1545 1547 1549 1551 1553 1556
1551 1553 1559 1568 1570 1570 1574 1577 1578 1579 1578 1576 1574 1571 1568 1565 1561 1557 1554 1550 1546 1542 1539 1536 1533 1531 1528 1526 1524 1523 1522 1522 1522 1522 1522 1524 1526 1527 1529 1531 1533 1535 1537 1540 1542 1544 1547 1549 1552
1556 1557 1560 1565 1572 1571 1573 1576 1576 1577 1577 1576 1575 1572 1569 1565 1561 1556 1552 1548 1544 1540 1536 1533 1530 1527 1525 1523 1521 1519 1518 1517 1518 1518 1518 1519 1520 1522 1523 1525 1527 1530 1532 1534 1536 1539 1541 1544 1547
1560 1564 1564 1565 1565 1568 1571 1568 1575 1575 1574 1575 1574 1571 1568 1564 1560 1556 1551 1546 1542 1538 1534 1531 1528 1525 1522 1520 1518 1516 1515 1514 1514 1514 1514 1514 1515 1516 1518 1520 1522 1525 1527 1529 1531 1533 1536 1540 1542
1564 1566 1564 1563 1563 1565 1568 1566 1572 1573 1574 1574 1573 1571 1568 1564 1560 1555 1550 1545 1541 1536 1532 1528 1525 1522 1519 1517 1515 1513 1512 1511 1511 1510 1510 1510 1511 1512 1513 1515 1517 1520 1522 1523 1526 1529 1532 1535 1537
1567 1565 1564 1562 1560 1567 1573 1571 1577 1577 1579 1576 1574 1571 1568 1564 1560 1555 1550 1544 1539 1535 1530 1526 1523 1520 1518 1515 1513 1511 1510 1509 1508 1507 1507 1507 1507 1508 1509 1511 1513 1515 1517 1519 1521 1524 1526 1529 1532
1564 1561 1561 1561 1563 1570 1575 1575 1581 1581 1580 1578 1576 1572 1569 1565 1560 1555 1549 1544 1539 1534 1530 1526 1522 1519 1517 1514 1512 1510 1509 1507 1506 1505 1505 1505 1505 1506 1507 1508 1509 1511 1513 1515 1517 1519 1521 1523 1526
1566 1562 1563 1562 1562 1570 1576 1577 1580 1581 1581 1579 1576 1573 1569 1565 1561 1556 1550 1545 1539 1534 1530 1526 1522 1519 1517 1514 1512 1510 1508 1507 1506 1505 1504 1503 1504 1504 1505 1506 1507 1509 1510 1512 1513 1515 1517 1519 1521
1565 1565 1567 1564 1566 1570 1573 1577 1578 1579 1579 1578 1576 1573 1570 1566 1562 1557 1552 1547 1541 1536 1532 1527 1524 1521 1518 1515 1513 1511 1509 1508 1506 1505 1504 1503 1503 1503 1504 1505 1506 1507 1508 1509 1510 1512 1514 1515 1517
1572 1570 1566 1565 1568 1568 1576 1578 1580 1579 1579 1577 1575 1573 1570 1567 1563 1558 1553 1548 1544 1539 1534 1530 1526 1523 1520 1517 1515 1513 1511 1509 1508 1507 1505 1504 1504 1504 1504 1505 1505 1506 1507 1507 1508 1509 1511 1512 1513
1572 1572 1570 1570 1570 1569 1574 1581 1579 1580 1580 1579 1576 1574 1571 1568 1564 1559 1555 1550 1546 1542 1537 1534 1530 1526 1522 1519 1517 1515 1513 1512 1510 1508 1507 1506 1506 1505 1505 1505 1506 1506 1506 1507 1507 1508 1509 1510 1511
1575 1575 1572 1570 1573 1573 1574 1582 1579 1580 1580 1579 1577 1575 1572 1569 1565 1561 1557 1553 1549 1545 1541 1537 1533 1530 1526 1523 1521 1518 1516 1514 1512 1511 1510 1509 1508 1507 1507 1507 1507 1507 1507 1507 1506 1506 1507 1508 1509